Year,Month,Day,Hour,Minute,Value (Times are PST for temperature in C)
2018,04,22,00,00,4.60
2018,04,22,00,01,4.60
2018,04,22,00,02,4.60
2018,04,22,00,03,4.50
2018,04,22,00,04,4.50
2018,04,22,00,05,4.40
2018,04,22,00,06,4.40
2018,04,22,00,07,4.40
2018,04,22,00,08,4.40
2018,04,22,00,09,4.40
2018,04,22,00,10,4.30
2018,04,22,00,11,4.30
2018,04,22,00,12,4.30
2018,04,22,00,13,4.30
2018,04,22,00,14,4.30
2018,04,22,00,15,4.30
2018,04,22,00,16,4.30
2018,04,22,00,17,4.30
2018,04,22,00,18,4.30
2018,04,22,00,19,4.20
2018,04,22,00,20,4.20
2018,04,22,00,21,4.20
2018,04,22,00,22,4.20
2018,04,22,00,23,4.20
2018,04,22,00,24,4.20
2018,04,22,00,25,4.20
2018,04,22,00,26,4.20
2018,04,22,00,27,4.20
2018,04,22,00,28,4.10
2018,04,22,00,29,4.10
2018,04,22,00,30,4.10
2018,04,22,00,31,4.10
2018,04,22,00,32,4.10
2018,04,22,00,33,4.00
2018,04,22,00,34,4.00
2018,04,22,00,35,4.00
2018,04,22,00,36,4.00
2018,04,22,00,37,3.90
2018,04,22,00,38,3.90
2018,04,22,00,39,3.90
2018,04,22,00,40,3.90
2018,04,22,00,41,3.90
2018,04,22,00,42,3.80
2018,04,22,00,43,3.80
2018,04,22,00,44,3.80
2018,04,22,00,45,3.80
2018,04,22,00,46,3.80
2018,04,22,00,47,3.80
2018,04,22,00,48,3.80
2018,04,22,00,49,3.70
2018,04,22,00,50,3.70
2018,04,22,00,51,3.70
2018,04,22,00,52,3.70
2018,04,22,00,53,3.70
2018,04,22,00,54,3.70
2018,04,22,00,55,3.60
2018,04,22,00,56,3.60
2018,04,22,00,57,3.60
2018,04,22,00,58,3.60
2018,04,22,00,59,3.60
2018,04,22,01,00,3.60
2018,04,22,01,01,3.60
2018,04,22,01,02,3.60
2018,04,22,01,03,3.50
2018,04,22,01,04,3.50
2018,04,22,01,05,3.50
2018,04,22,01,06,3.50
2018,04,22,01,07,3.50
2018,04,22,01,08,3.40
2018,04,22,01,09,3.40
2018,04,22,01,10,3.40
2018,04,22,01,11,3.40
2018,04,22,01,12,3.40
2018,04,22,01,13,3.40
2018,04,22,01,14,3.40
2018,04,22,01,15,3.40
2018,04,22,01,16,3.40
2018,04,22,01,17,3.40
2018,04,22,01,18,3.40
2018,04,22,01,19,3.40
2018,04,22,01,20,3.30
2018,04,22,01,21,3.30
2018,04,22,01,22,3.30
2018,04,22,01,23,3.30
2018,04,22,01,24,3.30
2018,04,22,01,25,3.30
2018,04,22,01,26,3.30
2018,04,22,01,27,3.30
2018,04,22,01,28,3.30
2018,04,22,01,29,3.30
2018,04,22,01,30,3.30
2018,04,22,01,31,3.30
2018,04,22,01,32,3.20
2018,04,22,01,33,3.20
2018,04,22,01,34,3.20
2018,04,22,01,35,3.20
2018,04,22,01,36,3.20
2018,04,22,01,37,3.20
2018,04,22,01,38,3.20
2018,04,22,01,39,3.20
2018,04,22,01,40,3.20
2018,04,22,01,41,3.20
2018,04,22,01,42,3.20
2018,04,22,01,43,3.20
2018,04,22,01,44,3.20
2018,04,22,01,45,3.20
2018,04,22,01,46,3.20
2018,04,22,01,47,3.20
2018,04,22,01,48,3.20
2018,04,22,01,49,3.20
2018,04,22,01,50,3.20
2018,04,22,01,51,3.20
2018,04,22,01,52,3.20
2018,04,22,01,53,3.20
2018,04,22,01,54,3.20
2018,04,22,01,55,3.20
2018,04,22,01,56,3.20
2018,04,22,01,57,3.20
2018,04,22,01,58,3.20
2018,04,22,01,59,3.10
2018,04,22,02,00,3.10
2018,04,22,02,01,3.10
2018,04,22,02,02,3.10
2018,04,22,02,03,3.10
2018,04,22,02,04,3.10
2018,04,22,02,05,3.10
2018,04,22,02,06,3.10
2018,04,22,02,07,3.00
2018,04,22,02,08,3.00
2018,04,22,02,09,3.00
2018,04,22,02,10,3.00
2018,04,22,02,11,3.00
2018,04,22,02,12,2.90
2018,04,22,02,13,2.90
2018,04,22,02,14,2.90
2018,04,22,02,15,2.90
2018,04,22,02,16,2.90
2018,04,22,02,17,2.90
2018,04,22,02,18,2.90
2018,04,22,02,19,2.90
2018,04,22,02,20,2.90
2018,04,22,02,21,2.90
2018,04,22,02,22,2.90
2018,04,22,02,23,2.90
2018,04,22,02,24,2.80
2018,04,22,02,25,2.80
2018,04,22,02,26,2.80
2018,04,22,02,27,2.80
2018,04,22,02,28,2.80
2018,04,22,02,29,2.80
2018,04,22,02,30,2.80
2018,04,22,02,31,2.80
2018,04,22,02,32,2.70
2018,04,22,02,33,2.70
2018,04,22,02,34,2.70
2018,04,22,02,35,2.70
2018,04,22,02,36,2.70
2018,04,22,02,37,2.70
2018,04,22,02,38,2.70
2018,04,22,02,39,2.70
2018,04,22,02,40,2.70
2018,04,22,02,41,2.70
2018,04,22,02,42,2.70
2018,04,22,02,43,2.70
2018,04,22,02,44,2.60
2018,04,22,02,45,2.60
2018,04,22,02,46,2.60
2018,04,22,02,47,2.60
2018,04,22,02,48,2.60
2018,04,22,02,49,2.60
2018,04,22,02,50,2.60
2018,04,22,02,51,2.60
2018,04,22,02,52,2.60
2018,04,22,02,53,2.60
2018,04,22,02,54,2.60
2018,04,22,02,55,2.60
2018,04,22,02,56,2.50
2018,04,22,02,57,2.50
2018,04,22,02,58,2.50
2018,04,22,02,59,2.50
2018,04,22,03,00,2.50
2018,04,22,03,01,2.50
2018,04,22,03,02,2.50
2018,04,22,03,03,2.40
2018,04,22,03,04,2.40
2018,04,22,03,05,2.40
2018,04,22,03,06,2.40
2018,04,22,03,07,2.40
2018,04,22,03,08,2.40
2018,04,22,03,09,2.50
2018,04,22,03,10,2.50
2018,04,22,03,11,2.50
2018,04,22,03,12,2.50
2018,04,22,03,13,2.40
2018,04,22,03,14,2.40
2018,04,22,03,15,2.40
2018,04,22,03,16,2.40
2018,04,22,03,17,2.40
2018,04,22,03,18,2.40
2018,04,22,03,19,2.40
2018,04,22,03,20,2.40
2018,04,22,03,21,2.40
2018,04,22,03,22,2.30
2018,04,22,03,23,2.30
2018,04,22,03,24,2.30
2018,04,22,03,25,2.30
2018,04,22,03,26,2.30
2018,04,22,03,27,2.30
2018,04,22,03,28,2.20
2018,04,22,03,29,2.20
2018,04,22,03,30,2.20
2018,04,22,03,31,2.20
2018,04,22,03,32,2.20
2018,04,22,03,33,2.20
2018,04,22,03,34,2.20
2018,04,22,03,35,2.20
2018,04,22,03,36,2.20
2018,04,22,03,37,2.20
2018,04,22,03,38,2.10
2018,04,22,03,39,2.10
2018,04,22,03,40,2.10
2018,04,22,03,41,2.10
2018,04,22,03,42,2.10
2018,04,22,03,43,2.10
2018,04,22,03,44,2.10
2018,04,22,03,45,2.10
2018,04,22,03,46,2.10
2018,04,22,03,47,2.10
2018,04,22,03,48,2.00
2018,04,22,03,49,2.00
2018,04,22,03,50,2.00
2018,04,22,03,51,2.00
2018,04,22,03,52,2.00
2018,04,22,03,53,2.00
2018,04,22,03,54,1.90
2018,04,22,03,55,1.90
2018,04,22,03,56,1.90
2018,04,22,03,57,1.90
2018,04,22,03,58,1.90
2018,04,22,03,59,1.90
2018,04,22,04,00,1.90
2018,04,22,04,01,1.90
2018,04,22,04,02,1.90
2018,04,22,04,03,1.90
2018,04,22,04,04,1.90
2018,04,22,04,05,1.90
2018,04,22,04,06,1.90
2018,04,22,04,07,1.90
2018,04,22,04,08,1.90
2018,04,22,04,09,1.90
2018,04,22,04,10,2.00
2018,04,22,04,11,2.00
2018,04,22,04,12,2.10
2018,04,22,04,13,2.10
2018,04,22,04,14,2.10
2018,04,22,04,15,2.10
2018,04,22,04,16,2.10
2018,04,22,04,17,2.10
2018,04,22,04,18,2.10
2018,04,22,04,19,2.10
2018,04,22,04,20,2.10
2018,04,22,04,21,2.10
2018,04,22,04,22,2.10
2018,04,22,04,23,2.00
2018,04,22,04,24,2.00
2018,04,22,04,25,2.00
2018,04,22,04,26,2.00
2018,04,22,04,27,2.00
2018,04,22,04,28,1.90
2018,04,22,04,29,1.90
2018,04,22,04,30,1.90
2018,04,22,04,31,1.90
2018,04,22,04,32,1.90
2018,04,22,04,33,1.90
2018,04,22,04,34,1.90
2018,04,22,04,35,1.80
2018,04,22,04,36,1.80
2018,04,22,04,37,1.80
2018,04,22,04,38,1.80
2018,04,22,04,39,1.80
2018,04,22,04,40,1.80
2018,04,22,04,41,1.80
2018,04,22,04,42,1.80
2018,04,22,04,43,1.80
2018,04,22,04,44,1.80
2018,04,22,04,45,1.80
2018,04,22,04,46,1.70
2018,04,22,04,47,1.70
2018,04,22,04,48,1.70
2018,04,22,04,49,1.80
2018,04,22,04,50,1.80
2018,04,22,04,51,1.80
2018,04,22,04,52,1.80
2018,04,22,04,53,1.80
2018,04,22,04,54,1.80
2018,04,22,04,55,1.80
2018,04,22,04,56,1.80
2018,04,22,04,57,1.80
2018,04,22,04,58,1.80
2018,04,22,04,59,1.80
2018,04,22,05,00,1.80
2018,04,22,05,01,1.80
2018,04,22,05,02,1.80
2018,04,22,05,03,1.80
2018,04,22,05,04,1.80
2018,04,22,05,05,1.80
2018,04,22,05,06,1.80
2018,04,22,05,07,1.80
2018,04,22,05,08,1.90
2018,04,22,05,09,1.90
2018,04,22,05,10,1.90
2018,04,22,05,11,1.90
2018,04,22,05,12,1.90
2018,04,22,05,13,1.90
2018,04,22,05,14,1.90
2018,04,22,05,15,1.90
2018,04,22,05,16,1.90
2018,04,22,05,17,1.90
2018,04,22,05,18,1.80
2018,04,22,05,19,1.80
2018,04,22,05,20,1.80
2018,04,22,05,21,1.80
2018,04,22,05,22,1.80
2018,04,22,05,23,1.80
2018,04,22,05,24,1.80
2018,04,22,05,25,1.80
2018,04,22,05,26,1.80
2018,04,22,05,27,1.70
2018,04,22,05,28,1.70
2018,04,22,05,29,1.70
2018,04,22,05,30,1.70
2018,04,22,05,31,1.70
2018,04,22,05,32,1.70
2018,04,22,05,33,1.70
2018,04,22,05,34,1.70
2018,04,22,05,35,1.70
2018,04,22,05,36,1.80
2018,04,22,05,37,1.80
2018,04,22,05,38,1.80
2018,04,22,05,39,1.80
2018,04,22,05,40,1.80
2018,04,22,05,41,1.80
2018,04,22,05,42,1.80
2018,04,22,05,43,1.80
2018,04,22,05,44,1.80
2018,04,22,05,45,1.80
2018,04,22,05,46,1.80
2018,04,22,05,47,1.80
2018,04,22,05,48,1.90
2018,04,22,05,49,1.90
2018,04,22,05,50,1.90
2018,04,22,05,51,1.90
2018,04,22,05,52,1.90
2018,04,22,05,53,2.00
2018,04,22,05,54,2.00
2018,04,22,05,55,2.00
2018,04,22,05,56,2.00
2018,04,22,05,57,2.00
2018,04,22,05,58,2.00
2018,04,22,05,59,2.00
2018,04,22,06,00,2.00
2018,04,22,06,01,2.00
2018,04,22,06,02,1.90
2018,04,22,06,03,1.90
2018,04,22,06,04,1.90
2018,04,22,06,05,1.90
2018,04,22,06,06,1.90
2018,04,22,06,07,1.80
2018,04,22,06,08,1.80
2018,04,22,06,09,1.80
2018,04,22,06,10,1.80
2018,04,22,06,11,1.70
2018,04,22,06,12,1.70
2018,04,22,06,13,1.70
2018,04,22,06,14,1.70
2018,04,22,06,15,1.70
2018,04,22,06,16,1.70
2018,04,22,06,17,1.70
2018,04,22,06,18,1.60
2018,04,22,06,19,1.60
2018,04,22,06,20,1.60
2018,04,22,06,21,1.60
2018,04,22,06,22,1.60
2018,04,22,06,23,1.50
2018,04,22,06,24,1.50
2018,04,22,06,25,1.50
2018,04,22,06,26,1.40
2018,04,22,06,27,1.40
2018,04,22,06,28,1.40
2018,04,22,06,29,1.40
2018,04,22,06,30,1.30
2018,04,22,06,31,1.30
2018,04,22,06,32,1.30
2018,04,22,06,33,1.30
2018,04,22,06,34,1.40
2018,04,22,06,35,1.40
2018,04,22,06,36,1.40
2018,04,22,06,37,1.50
2018,04,22,06,38,1.50
2018,04,22,06,39,1.60
2018,04,22,06,40,1.70
2018,04,22,06,41,1.70
2018,04,22,06,42,1.80
2018,04,22,06,43,1.80
2018,04,22,06,44,1.80
2018,04,22,06,45,1.80
2018,04,22,06,46,1.90
2018,04,22,06,47,1.90
2018,04,22,06,48,1.90
2018,04,22,06,49,1.90
2018,04,22,06,50,1.90
2018,04,22,06,51,1.90
2018,04,22,06,52,1.90
2018,04,22,06,53,1.90
2018,04,22,06,54,1.90
2018,04,22,06,55,1.90
2018,04,22,06,56,1.90
2018,04,22,06,57,1.90
2018,04,22,06,58,1.90
2018,04,22,06,59,1.90
2018,04,22,07,00,1.90
2018,04,22,07,01,1.90
2018,04,22,07,02,1.90
2018,04,22,07,03,1.90
2018,04,22,07,04,1.90
2018,04,22,07,05,1.90
2018,04,22,07,06,1.90
2018,04,22,07,07,1.90
2018,04,22,07,08,1.80
2018,04,22,07,09,1.80
2018,04,22,07,10,1.80
2018,04,22,07,11,1.80
2018,04,22,07,12,1.80
2018,04,22,07,13,1.80
2018,04,22,07,14,1.80
2018,04,22,07,15,1.80
2018,04,22,07,16,1.80
2018,04,22,07,17,1.80
2018,04,22,07,18,1.80
2018,04,22,07,19,1.80
2018,04,22,07,20,1.80
2018,04,22,07,21,1.80
2018,04,22,07,22,1.80
2018,04,22,07,23,1.90
2018,04,22,07,24,1.90
2018,04,22,07,25,1.80
2018,04,22,07,26,1.80
2018,04,22,07,27,1.90
2018,04,22,07,28,1.90
2018,04,22,07,29,1.90
2018,04,22,07,30,1.90
2018,04,22,07,31,1.90
2018,04,22,07,32,1.90
2018,04,22,07,33,1.90
2018,04,22,07,34,1.90
2018,04,22,07,35,1.90
2018,04,22,07,36,1.90
2018,04,22,07,37,1.90
2018,04,22,07,38,1.90
2018,04,22,07,39,1.90
2018,04,22,07,40,2.00
2018,04,22,07,41,2.00
2018,04,22,07,42,2.00
2018,04,22,07,43,2.00
2018,04,22,07,44,2.00
2018,04,22,07,45,2.00
2018,04,22,07,46,2.00
2018,04,22,07,47,2.00
2018,04,22,07,48,2.00
2018,04,22,07,49,2.00
2018,04,22,07,50,2.00
2018,04,22,07,51,2.00
2018,04,22,07,52,2.00
2018,04,22,07,53,2.00
2018,04,22,07,54,2.00
2018,04,22,07,55,2.00
2018,04,22,07,56,2.00
2018,04,22,07,57,2.00
2018,04,22,07,58,2.00
2018,04,22,07,59,2.00
2018,04,22,08,00,2.10
2018,04,22,08,01,2.10
2018,04,22,08,02,2.10
2018,04,22,08,03,2.10
2018,04,22,08,04,2.10
2018,04,22,08,05,2.10
2018,04,22,08,06,2.10
2018,04,22,08,07,2.10
2018,04,22,08,08,2.10
2018,04,22,08,09,2.10
2018,04,22,08,10,2.10
2018,04,22,08,11,2.20
2018,04,22,08,12,2.20
2018,04,22,08,13,2.20
2018,04,22,08,14,2.20
2018,04,22,08,15,2.20
2018,04,22,08,16,2.20
2018,04,22,08,17,2.20
2018,04,22,08,18,2.30
2018,04,22,08,19,2.30
2018,04,22,08,20,2.30
2018,04,22,08,21,2.30
2018,04,22,08,22,2.30
2018,04,22,08,23,2.30
2018,04,22,08,24,2.30
2018,04,22,08,25,2.40
2018,04,22,08,26,2.40
2018,04,22,08,27,2.40
2018,04,22,08,28,2.40
2018,04,22,08,29,2.40
2018,04,22,08,30,2.50
2018,04,22,08,31,2.50
2018,04,22,08,32,2.50
2018,04,22,08,33,2.60
2018,04,22,08,34,2.60
2018,04,22,08,35,2.60
2018,04,22,08,36,2.60
2018,04,22,08,37,2.60
2018,04,22,08,38,2.70
2018,04,22,08,39,2.70
2018,04,22,08,40,2.70
2018,04,22,08,41,2.70
2018,04,22,08,42,2.70
2018,04,22,08,43,2.80
2018,04,22,08,44,2.80
2018,04,22,08,45,2.80
2018,04,22,08,46,2.80
2018,04,22,08,47,2.90
2018,04,22,08,48,2.90
2018,04,22,08,49,2.90
2018,04,22,08,50,3.00
2018,04,22,08,51,3.00
2018,04,22,08,52,3.00
2018,04,22,08,53,3.10
2018,04,22,08,54,3.10
2018,04,22,08,55,3.10
2018,04,22,08,56,3.10
2018,04,22,08,57,3.20
2018,04,22,08,58,3.20
2018,04,22,08,59,3.30
2018,04,22,09,00,3.30
2018,04,22,09,01,3.40
2018,04,22,09,02,3.50
2018,04,22,09,03,3.60
2018,04,22,09,04,3.70
2018,04,22,09,05,3.80
2018,04,22,09,06,3.90
2018,04,22,09,07,3.90
2018,04,22,09,08,4.00
2018,04,22,09,09,4.10
2018,04,22,09,10,4.20
2018,04,22,09,11,4.20
2018,04,22,09,12,4.30
2018,04,22,09,13,4.30
2018,04,22,09,14,4.40
2018,04,22,09,15,4.40
2018,04,22,09,16,4.50
2018,04,22,09,17,4.50
2018,04,22,09,18,4.60
2018,04,22,09,19,4.60
2018,04,22,09,20,4.60
2018,04,22,09,21,4.70
2018,04,22,09,22,4.70
2018,04,22,09,23,4.70
2018,04,22,09,24,4.70
2018,04,22,09,25,4.70
2018,04,22,09,26,4.80
2018,04,22,09,27,4.80
2018,04,22,09,28,4.80
2018,04,22,09,29,4.80
2018,04,22,09,30,4.80
2018,04,22,09,31,4.90
2018,04,22,09,32,4.90
2018,04,22,09,33,4.90
2018,04,22,09,34,5.00
2018,04,22,09,35,5.00
2018,04,22,09,36,5.10
2018,04,22,09,37,5.10
2018,04,22,09,38,5.10
2018,04,22,09,39,5.20
2018,04,22,09,40,5.20
2018,04,22,09,41,5.20
2018,04,22,09,42,5.30
2018,04,22,09,43,5.30
2018,04,22,09,44,5.40
2018,04,22,09,45,5.40
2018,04,22,09,46,5.50
2018,04,22,09,47,5.60
2018,04,22,09,48,5.60
2018,04,22,09,49,5.70
2018,04,22,09,50,5.80
2018,04,22,09,51,5.90
2018,04,22,09,52,5.90
2018,04,22,09,53,6.00
2018,04,22,09,54,6.10
2018,04,22,09,55,6.20
2018,04,22,09,56,6.20
2018,04,22,09,57,6.30
2018,04,22,09,58,6.30
2018,04,22,09,59,6.40
2018,04,22,10,00,6.50
2018,04,22,10,01,6.50
2018,04,22,10,02,6.60
2018,04,22,10,03,6.60
2018,04,22,10,04,6.70
2018,04,22,10,05,6.70
2018,04,22,10,06,6.70
2018,04,22,10,07,6.80
2018,04,22,10,08,6.90
2018,04,22,10,09,6.90
2018,04,22,10,10,7.00
2018,04,22,10,11,7.10
2018,04,22,10,12,7.10
2018,04,22,10,13,7.20
2018,04,22,10,14,7.20
2018,04,22,10,15,7.20
2018,04,22,10,16,7.30
2018,04,22,10,17,7.30
2018,04,22,10,18,7.40
2018,04,22,10,19,7.50
2018,04,22,10,20,7.50
2018,04,22,10,21,7.60
2018,04,22,10,22,7.60
2018,04,22,10,23,7.60
2018,04,22,10,24,7.70
2018,04,22,10,25,7.70
2018,04,22,10,26,7.70
2018,04,22,10,27,7.80
2018,04,22,10,28,7.80
2018,04,22,10,29,7.80
2018,04,22,10,30,7.80
2018,04,22,10,31,7.90
2018,04,22,10,32,7.90
2018,04,22,10,33,7.90
2018,04,22,10,34,8.00
2018,04,22,10,35,8.00
2018,04,22,10,36,8.00
2018,04,22,10,37,8.10
2018,04,22,10,38,8.10
2018,04,22,10,39,8.20
2018,04,22,10,40,8.20
2018,04,22,10,41,8.20
2018,04,22,10,42,8.30
2018,04,22,10,43,8.30
2018,04,22,10,44,8.40
2018,04,22,10,45,8.50
2018,04,22,10,46,8.60
2018,04,22,10,47,8.60
2018,04,22,10,48,8.70
2018,04,22,10,49,8.70
2018,04,22,10,50,8.70
2018,04,22,10,51,8.70
2018,04,22,10,52,8.80
2018,04,22,10,53,8.80
2018,04,22,10,54,8.80
2018,04,22,10,55,8.90
2018,04,22,10,56,8.90
2018,04,22,10,57,8.90
2018,04,22,10,58,8.90
2018,04,22,10,59,8.90
2018,04,22,11,00,8.90
2018,04,22,11,01,9.00
2018,04,22,11,02,9.00
2018,04,22,11,03,9.10
2018,04,22,11,04,9.10
2018,04,22,11,05,9.10
2018,04,22,11,06,9.10
2018,04,22,11,07,9.20
2018,04,22,11,08,9.20
2018,04,22,11,09,9.20
2018,04,22,11,10,9.20
2018,04,22,11,11,9.20
2018,04,22,11,12,9.20
2018,04,22,11,13,9.30
2018,04,22,11,14,9.30
2018,04,22,11,15,9.30
2018,04,22,11,16,9.30
2018,04,22,11,17,9.30
2018,04,22,11,18,9.30
2018,04,22,11,19,9.40
2018,04,22,11,20,9.40
2018,04,22,11,21,9.40
2018,04,22,11,22,9.40
2018,04,22,11,23,9.50
2018,04,22,11,24,9.60
2018,04,22,11,25,9.60
2018,04,22,11,26,9.60
2018,04,22,11,27,9.60
2018,04,22,11,28,9.60
2018,04,22,11,29,9.70
2018,04,22,11,30,9.70
2018,04,22,11,31,9.70
2018,04,22,11,32,9.70
2018,04,22,11,33,9.70
2018,04,22,11,34,9.80
2018,04,22,11,35,9.80
2018,04,22,11,36,9.90
2018,04,22,11,37,9.90
2018,04,22,11,38,10.00
2018,04,22,11,39,10.00
2018,04,22,11,40,10.10
2018,04,22,11,41,10.10
2018,04,22,11,42,10.10
2018,04,22,11,43,10.10
2018,04,22,11,44,10.20
2018,04,22,11,45,10.20
2018,04,22,11,46,10.20
2018,04,22,11,47,10.20
2018,04,22,11,48,10.20
2018,04,22,11,49,10.20
2018,04,22,11,50,10.20
2018,04,22,11,51,10.30
2018,04,22,11,52,10.30
2018,04,22,11,53,10.30
2018,04,22,11,54,10.30
2018,04,22,11,55,10.40
2018,04,22,11,56,10.40
2018,04,22,11,57,10.40
2018,04,22,11,58,10.50
2018,04,22,11,59,10.50
2018,04,22,12,00,10.50
2018,04,22,12,01,10.60
2018,04,22,12,02,10.60
2018,04,22,12,03,10.60
2018,04,22,12,04,10.70
2018,04,22,12,05,10.70
2018,04,22,12,06,10.70
2018,04,22,12,07,10.80
2018,04,22,12,08,10.80
2018,04,22,12,09,10.80
2018,04,22,12,10,10.80
2018,04,22,12,11,10.90
2018,04,22,12,12,10.90
2018,04,22,12,13,10.90
2018,04,22,12,14,10.90
2018,04,22,12,15,10.90
2018,04,22,12,16,10.90
2018,04,22,12,17,11.00
2018,04,22,12,18,11.00
2018,04,22,12,19,11.00
2018,04,22,12,20,11.10
2018,04,22,12,21,11.10
2018,04,22,12,22,11.10
2018,04,22,12,23,11.10
2018,04,22,12,24,11.10
2018,04,22,12,25,11.20
2018,04,22,12,26,11.20
2018,04,22,12,27,11.20
2018,04,22,12,28,11.20
2018,04,22,12,29,11.20
2018,04,22,12,30,11.20
2018,04,22,12,31,11.20
2018,04,22,12,32,11.30
2018,04,22,12,33,11.30
2018,04,22,12,34,11.30
2018,04,22,12,35,11.30
2018,04,22,12,36,11.30
2018,04,22,12,37,11.30
2018,04,22,12,38,11.30
2018,04,22,12,39,11.30
2018,04,22,12,40,11.30
2018,04,22,12,41,11.40
2018,04,22,12,42,11.40
2018,04,22,12,43,11.40
2018,04,22,12,44,11.40
2018,04,22,12,45,11.50
2018,04,22,12,46,11.50
2018,04,22,12,47,11.60
2018,04,22,12,48,11.60
2018,04,22,12,49,11.70
2018,04,22,12,50,11.70
2018,04,22,12,51,11.70
2018,04,22,12,52,11.80
2018,04,22,12,53,11.80
2018,04,22,12,54,11.80
2018,04,22,12,55,11.80
2018,04,22,12,56,11.80
2018,04,22,12,57,11.80
2018,04,22,12,58,11.80
2018,04,22,12,59,11.80
2018,04,22,13,00,11.80
2018,04,22,13,01,11.80
2018,04,22,13,02,11.80
2018,04,22,13,03,11.80
2018,04,22,13,04,11.80
2018,04,22,13,05,11.90
2018,04,22,13,06,11.90
2018,04,22,13,07,12.00
2018,04,22,13,08,12.00
2018,04,22,13,09,12.10
2018,04,22,13,10,12.00
2018,04,22,13,11,12.00
2018,04,22,13,12,12.00
2018,04,22,13,13,12.00
2018,04,22,13,14,12.00
2018,04,22,13,15,12.00
2018,04,22,13,16,12.00
2018,04,22,13,17,12.00
2018,04,22,13,18,12.00
2018,04,22,13,19,12.00
2018,04,22,13,20,12.10
2018,04,22,13,21,12.10
2018,04,22,13,22,12.10
2018,04,22,13,23,12.10
2018,04,22,13,24,12.10
2018,04,22,13,25,12.20
2018,04,22,13,26,12.20
2018,04,22,13,27,12.20
2018,04,22,13,28,12.30
2018,04,22,13,29,12.30
2018,04,22,13,30,12.40
2018,04,22,13,31,12.40
2018,04,22,13,32,12.50
2018,04,22,13,33,12.50
2018,04,22,13,34,12.50
2018,04,22,13,35,12.50
2018,04,22,13,36,12.50
2018,04,22,13,37,12.50
2018,04,22,13,38,12.40
2018,04,22,13,39,12.40
2018,04,22,13,40,12.40
2018,04,22,13,41,12.40
2018,04,22,13,42,12.40
2018,04,22,13,43,12.30
2018,04,22,13,44,12.30
2018,04,22,13,45,12.30
2018,04,22,13,46,12.20
2018,04,22,13,47,12.20
2018,04,22,13,48,12.20
2018,04,22,13,49,12.20
2018,04,22,13,50,12.20
2018,04,22,13,51,12.30
2018,04,22,13,52,12.30
2018,04,22,13,53,12.40
2018,04,22,13,54,12.40
2018,04,22,13,55,12.40
2018,04,22,13,56,12.50
2018,04,22,13,57,12.50
2018,04,22,13,58,12.50
2018,04,22,13,59,12.60
2018,04,22,14,00,12.70
2018,04,22,14,01,12.70
2018,04,22,14,02,12.80
2018,04,22,14,03,12.80
2018,04,22,14,04,12.90
2018,04,22,14,05,13.00
2018,04,22,14,06,13.00
2018,04,22,14,07,13.10
2018,04,22,14,08,13.10
2018,04,22,14,09,13.10
2018,04,22,14,10,13.10
2018,04,22,14,11,13.10
2018,04,22,14,12,13.20
2018,04,22,14,13,13.20
2018,04,22,14,14,13.20
2018,04,22,14,15,13.30
2018,04,22,14,16,13.30
2018,04,22,14,17,13.30
2018,04,22,14,18,13.30
2018,04,22,14,19,13.30
2018,04,22,14,20,13.30
2018,04,22,14,21,13.30
2018,04,22,14,22,13.40
2018,04,22,14,23,13.40
2018,04,22,14,24,13.50
2018,04,22,14,25,13.50
2018,04,22,14,26,13.50
2018,04,22,14,27,13.50
2018,04,22,14,28,13.60
2018,04,22,14,29,13.60
2018,04,22,14,30,13.60
2018,04,22,14,31,13.60
2018,04,22,14,32,13.60
2018,04,22,14,33,13.60
2018,04,22,14,34,13.60
2018,04,22,14,35,13.60
2018,04,22,14,36,13.60
2018,04,22,14,37,13.60
2018,04,22,14,38,13.70
2018,04,22,14,39,13.70
2018,04,22,14,40,13.80
2018,04,22,14,41,13.80
2018,04,22,14,42,13.90
2018,04,22,14,43,13.90
2018,04,22,14,44,14.00
2018,04,22,14,45,14.00
2018,04,22,14,46,14.10
2018,04,22,14,47,14.10
2018,04,22,14,48,14.10
2018,04,22,14,49,14.20
2018,04,22,14,50,14.20
2018,04,22,14,51,14.30
2018,04,22,14,52,14.30
2018,04,22,14,53,14.40
2018,04,22,14,54,14.40
2018,04,22,14,55,14.40
2018,04,22,14,56,14.40
2018,04,22,14,57,14.40
2018,04,22,14,58,14.40
2018,04,22,14,59,14.30
2018,04,22,15,00,14.20
2018,04,22,15,01,14.00
2018,04,22,15,02,13.90
2018,04,22,15,03,13.80
2018,04,22,15,04,13.80
2018,04,22,15,05,13.90
2018,04,22,15,06,13.90
2018,04,22,15,07,14.00
2018,04,22,15,08,14.10
2018,04,22,15,09,14.10
2018,04,22,15,10,14.20
2018,04,22,15,11,14.30
2018,04,22,15,12,14.40
2018,04,22,15,13,14.40
2018,04,22,15,14,14.40
2018,04,22,15,15,14.50
2018,04,22,15,16,14.50
2018,04,22,15,17,14.60
2018,04,22,15,18,14.60
2018,04,22,15,19,14.60
2018,04,22,15,20,14.60
2018,04,22,15,21,14.70
2018,04,22,15,22,14.70
2018,04,22,15,23,14.80
2018,04,22,15,24,14.90
2018,04,22,15,25,15.00
2018,04,22,15,26,15.00
2018,04,22,15,27,15.00
2018,04,22,15,28,15.00
2018,04,22,15,29,15.00
2018,04,22,15,30,15.00
2018,04,22,15,31,15.00
2018,04,22,15,32,14.90
2018,04,22,15,33,14.80
2018,04,22,15,34,14.70
2018,04,22,15,35,14.70
2018,04,22,15,36,14.60
2018,04,22,15,37,14.60
2018,04,22,15,38,14.60
2018,04,22,15,39,14.60
2018,04,22,15,40,14.60
2018,04,22,15,41,14.70
2018,04,22,15,42,14.70
2018,04,22,15,43,14.80
2018,04,22,15,44,14.90
2018,04,22,15,45,15.00
2018,04,22,15,46,15.00
2018,04,22,15,47,15.00
2018,04,22,15,48,15.00
2018,04,22,15,49,15.00
2018,04,22,15,50,15.00
2018,04,22,15,51,15.00
2018,04,22,15,52,15.00
2018,04,22,15,53,15.00
2018,04,22,15,54,15.00
2018,04,22,15,55,15.00
2018,04,22,15,56,15.00
2018,04,22,15,57,15.00
2018,04,22,15,58,15.00
2018,04,22,15,59,15.00
2018,04,22,16,00,15.10
2018,04,22,16,01,15.10
2018,04,22,16,02,15.20
2018,04,22,16,03,15.20
2018,04,22,16,04,15.30
2018,04,22,16,05,15.40
2018,04,22,16,06,15.40
2018,04,22,16,07,15.40
2018,04,22,16,08,15.40
2018,04,22,16,09,15.50
2018,04,22,16,10,15.60
2018,04,22,16,11,15.60
2018,04,22,16,12,15.60
2018,04,22,16,13,15.60
2018,04,22,16,14,15.70
2018,04,22,16,15,15.70
2018,04,22,16,16,15.70
2018,04,22,16,17,15.60
2018,04,22,16,18,15.60
2018,04,22,16,19,15.60
2018,04,22,16,20,15.60
2018,04,22,16,21,15.60
2018,04,22,16,22,15.60
2018,04,22,16,23,15.60
2018,04,22,16,24,15.60
2018,04,22,16,25,15.60
2018,04,22,16,26,15.60
2018,04,22,16,27,15.50
2018,04,22,16,28,15.40
2018,04,22,16,29,15.30
2018,04,22,16,30,15.20
2018,04,22,16,31,15.00
2018,04,22,16,32,15.00
2018,04,22,16,33,15.00
2018,04,22,16,34,15.00
2018,04,22,16,35,15.00
2018,04,22,16,36,15.10
2018,04,22,16,37,15.20
2018,04,22,16,38,15.20
2018,04,22,16,39,15.30
2018,04,22,16,40,15.30
2018,04,22,16,41,15.40
2018,04,22,16,42,15.50
2018,04,22,16,43,15.60
2018,04,22,16,44,15.60
2018,04,22,16,45,15.50
2018,04,22,16,46,15.40
2018,04,22,16,47,15.30
2018,04,22,16,48,15.10
2018,04,22,16,49,15.00
2018,04,22,16,50,15.00
2018,04,22,16,51,15.00
2018,04,22,16,52,14.80
2018,04,22,16,53,14.70
2018,04,22,16,54,14.70
2018,04,22,16,55,14.60
2018,04,22,16,56,14.50
2018,04,22,16,57,14.50
2018,04,22,16,58,14.40
2018,04,22,16,59,14.40
2018,04,22,17,00,14.40
2018,04,22,17,01,14.50
2018,04,22,17,02,14.40
2018,04,22,17,03,14.40
2018,04,22,17,04,14.40
2018,04,22,17,05,14.50
2018,04,22,17,06,14.50
2018,04,22,17,07,14.50
2018,04,22,17,08,14.60
2018,04,22,17,09,14.60
2018,04,22,17,10,14.60
2018,04,22,17,11,14.60
2018,04,22,17,12,14.60
2018,04,22,17,13,14.60
2018,04,22,17,14,14.60
2018,04,22,17,15,14.60
2018,04,22,17,16,14.60
2018,04,22,17,17,14.60
2018,04,22,17,18,14.60
2018,04,22,17,19,14.60
2018,04,22,17,20,14.70
2018,04,22,17,21,14.70
2018,04,22,17,22,14.70
2018,04,22,17,23,14.70
2018,04,22,17,24,14.70
2018,04,22,17,25,14.70
2018,04,22,17,26,14.70
2018,04,22,17,27,14.70
2018,04,22,17,28,14.70
2018,04,22,17,29,14.70
2018,04,22,17,30,14.80
2018,04,22,17,31,14.80
2018,04,22,17,32,14.80
2018,04,22,17,33,14.80
2018,04,22,17,34,14.80
2018,04,22,17,35,14.90
2018,04,22,17,36,14.90
2018,04,22,17,37,14.90
2018,04,22,17,38,14.90
2018,04,22,17,39,14.90
2018,04,22,17,40,14.80
2018,04,22,17,41,14.80
2018,04,22,17,42,14.80
2018,04,22,17,43,14.80
2018,04,22,17,44,14.80
2018,04,22,17,45,14.80
2018,04,22,17,46,14.80
2018,04,22,17,47,14.80
2018,04,22,17,48,14.80
2018,04,22,17,49,14.70